Main page
METAR-TAF:

METAR-TAF

Airports :

Carlos Prates Airport

Belo Horizonte, Minas Gerais, Brazil

latitude: 19-54-33S, longitude: 043-59-21W, elevation: 928 m

Current weather observation

The report was made 36 minutes ago, at 16:00 UTC
Wind 8 kt from the Northwest
Temperature 31°C
Humidity 52%
Pressure 1016 hPa
Visibility 10 km or more
Broken clouds at a height of 3000 ft
Few clouds at a height of 3500 ft, Towering cumulus.

METAR: SBPR 211600Z 31008KT 9999 BKN030 FEW035TCU 31/20 Q1016

Time: 13:36 (16:36 UTC)


TAF: missing

Weather observations and forecasts of more than 4000 airports (METAR and TAF reports).

The available stations are represented by yellow and red dots on the map.

Hover mouse over dot to see the name of the station.

Then click to see weather observations and forecasts.

To change the map : click on the green buttons with a black cross to zoom in, on the green button with a dash to zoom out, or on the green arrows for adjacent maps.


METAR-TAF: